• Join FlightAware (Why Join?)
  • Login
  • US Flag 
Trick or treat! (Boo!!) 
11:19PM EDT


 

Airport Tracker/Info


-or-


 

Live Flight TrackerFlight Track Log ✈ DAL6225 ✈ 24-May-2013 ✈ KMSN - KLGA

Flight Track Log - Related Links

Times and Time Zones

All times are in EDT time to prevent confusion due to time zone crossing. See the DAL6225 flight status page for this flight to view local times or setup timezone preferences in your user account.

Time Position Orientation Groundspeed Altitude Reporting Facility
EDT Latitude Longitude Course Direction KTS MPH feet Rate Location/Type
08:18AM 43.1919 -89.3169 90° East 188 216 3,100  Level Chicago Center
08:19AM 43.2331 -89.2494 50° Northeast 220 253 5,100 2,160 Climbing Chicago Center
08:20AM 43.2208 -89.1472 99° East 266 306 7,600 2,400 Climbing Chicago Center
08:21AM 43.2092 -89.0389 98° East 282 325 10,100 1,800 Climbing Chicago Center
08:22AM 43.1922 -88.8956 99° East 325 374 11,400 1,560 Climbing Chicago Center
08:23AM 43.1167 -88.5625 90° East  Level FlightAware Approximate
08:23AM 43.1747 -88.7589 100° East 361 415 13,400  Level Chicago Center
08:24AM 43.1575 -88.6211 100° East 368 423 15,500 1,920 Climbing Chicago Center
08:25AM 43.1394 -88.4806 100° East 376 433 17,400 1,500 Climbing Chicago Center
08:26AM 43.1217 -88.3358 100° East 386 444 18,600 1,320 Climbing Chicago Center
08:27AM 43.1211 -88.1628 90° East 393 452 20,200 1,500 Climbing Chicago Center
08:28AM 43.1289 -88.0122 86° East 397 457 21,800 1,260 Climbing Chicago Center
08:29AM 43.1356 -87.8575 87° East 406 467 22,900 1,200 Climbing Chicago Center
08:30AM 43.1431 -87.6975 86° East 421 484 24,300 1,320 Climbing Chicago Center
08:31AM 43.1511 -87.5072 87° East 430 495 25,700 1,020 Climbing Chicago Center
08:32AM 43.1586 -87.3472 86° East 433 498 26,500 900 Climbing Chicago Center
08:33AM 43.1656 -87.1783 87° East 442 509 27,600 960 Climbing Chicago Center
08:34AM 43.1722 -87.0089 87° East 446 513 28,600 840 Climbing Chicago Center
08:36AM 43.1778 -86.8375 87° East 450 518 29,400 600 Climbing Chicago Center
08:37AM 43.1853 -86.6619 87° East 459 528 29,900 600 Climbing Chicago Center
08:38AM 43.1928 -86.4475 87° East 469 540 30,700 720 Climbing Chicago Center
08:39AM 43.1986 -86.2672 87° East 471 542 31,500 780 Climbing Chicago Center
08:40AM 43.2044 -86.0850 87° East 473 544 32,400 780 Climbing Chicago Center
08:41AM 43.2094 -85.9028 88° East 470 541 33,200 720 Climbing Chicago Center
08:42AM 43.2147 -85.7231 88° East 466 536 34,000 720 Climbing Chicago Center
08:43AM 43.2197 -85.5464 88° East 463 533 34,700 480 Climbing Chicago Center
08:44AM 43.2239 -85.3697 88° East 463 533 35,000 120 Climbing Chicago Center
08:45AM 43.2283 -85.1928 88° East 464 534 35,000  Level Chicago Center
08:46AM 43.2314 -85.0142 89° East 468 539 35,000 180 Level Chicago Center
08:47AM 43.2358 -84.7958 88° East 477 549 35,400 420 Climbing Chicago Center
08:48AM 43.2400 -84.6139 88° East 479 551 35,900 480 Climbing Chicago Center
08:49AM 43.2422 -84.4314 89° East 479 551 36,400 480 Climbing Chicago Center
08:50AM 43.2419 -84.3169 90° East 476 548 36,700 360 Climbing Cleveland Center
08:51AM 43.2433 -84.1344 89° East 476 548 37,000 120 Climbing Cleveland Center
08:52AM 43.2467 -83.9608 88° East 471 542 37,000  Level Cleveland Center
08:53AM 43.2494 -83.7842 89° East 465 535 37,000  Level Cleveland Center
08:54AM 43.2522 -83.6075 89° East 460 529 37,000  Level Cleveland Center
08:55AM 43.2525 -83.4281 90° East 460 529 37,000  Level Cleveland Center
08:56AM 43.2528 -83.2456 90° East 465 535 37,000  Level Cleveland Center
08:57AM 43.2547 -83.0603 89° East 476 548 37,000  Level Cleveland Center
08:58AM 43.2544 -82.8778 90° East 476 548 37,000  Level Cleveland Center
08:58AM 43.2333 -82.7833 107° East 480 552 37,000  Level Toronto Center
08:59AM 43.2536 -82.6953 72° East 476 548 37,000  Level Cleveland Center
09:00AM 43.2422 -82.5153 95° East 476 548 37,000  Level Cleveland Center
09:00AM 43.2333 -82.4167 97° East 470 541 37,000  Level Toronto Center
09:01AM 43.2167 -82.2667 99° East 470 541 37,000  Level Toronto Center
09:02AM 43.2000 -82.0833 97° East 470 541 37,000  Level Toronto Center
09:03AM 43.2000 -81.9000 90° East 470 541 37,000  Level Toronto Center
09:04AM 43.1833 -81.7333 98° East 470 541 37,000  Level Toronto Center
09:05AM 43.1667 -81.5500 97° East 470 541 37,000  Level Toronto Center
09:06AM 43.1500 -81.3667 97° East 470 541 37,000  Level Toronto Center
09:07AM 43.1333 -81.1833 97° East 470 541 37,000  Level Toronto Center
09:08AM 43.1167 -81.0000 97° East 470 541 37,000  Level Toronto Center
09:09AM 43.1000 -80.8167 97° East 470 541 37,000  Level Toronto Center
09:10AM 43.1000 -80.6667 90° East 470 541 37,000  Level Toronto Center
09:11AM 43.0833 -80.4833 97° East 470 541 37,000  Level Toronto Center
09:12AM 43.0667 -80.3000 97° East 470 541 37,000  Level Toronto Center
09:13AM 43.0500 -80.1333 98° East 470 541 37,000  Level Toronto Center
09:14AM 43.0333 -79.9500 97° East 470 541 37,000  Level Toronto Center
09:15AM 43.0333 -79.7667 90° East 470 541 37,000  Level Toronto Center
09:16AM 43.0167 -79.5833 97° East 470 541 37,000  Level Toronto Center
09:17AM 43.0000 -79.4000 97° East 470 541 37,000  Level Toronto Center
09:18AM 42.9833 -79.2500 99° East 470 541 37,000  Level Toronto Center
09:19AM 42.9667 -79.0667 97° East 460 529 37,000  Level Toronto Center
09:20AM 42.9500 -78.8833 97° East 460 529 37,000  Level Toronto Center
09:21AM 42.9333 -78.7167 98° East 470 541 37,000  Level Toronto Center
09:22AM 42.9194 -78.5447 96° East 463 533 37,000  Level Cleveland Center
09:23AM 42.9017 -78.3697 98° East 463 533 37,000  Level Cleveland Center
09:24AM 42.8836 -78.1944 98° East 463 533 37,000  Level Cleveland Center
09:25AM 42.8653 -78.0197 98° East 463 533 37,000  Level Cleveland Center
09:26AM 42.8442 -77.8278 98° East 463 533 37,000  Level Cleveland Center
09:27AM 42.8253 -77.6561 98° East 463 533 37,000  Level Cleveland Center
09:29AM 42.7850 -77.3778 101° East 442 509 37,000  Level Boston Center
09:30AM 42.7611 -77.2061 101° East 442 509 37,000  Level Boston Center
09:31AM 42.7369 -77.0375 101° East 453 521 37,000  Level Boston Center
09:32AM 42.7122 -76.8717 101° East 448 516 37,000  Level Boston Center
09:33AM 42.6892 -76.7061 101° East 443 510 37,000  Level Boston Center
09:34AM 42.6642 -76.5375 101° East 443 510 37,000 -300 Level Boston Center
09:35AM 42.6408 -76.3722 101° East 443 510 36,500 -1,020 Descending Boston Center
09:36AM 42.6192 -76.2100 100° East 443 510 35,000 -1,440 Descending Boston Center
09:37AM 42.5914 -76.0419 103° East 443 510 33,700 -1,440 Descending Boston Center
09:38AM 42.5708 -75.8997 101° East 437 503 32,200 -1,500 Descending Boston Center
09:39AM 42.5422 -75.7344 103° East 437 503 30,800 -1,440 Descending Boston Center
09:40AM 42.5158 -75.5642 102° East 437 503 29,400 -1,440 Descending Boston Center
09:41AM 42.4892 -75.3967 102° East 447 514 28,000 -1,380 Descending Boston Center
09:42AM 42.4600 -75.2319 103° East 447 514 26,700 -1,440 Descending Boston Center
09:43AM 42.4069 -75.0861 116° Southeast 447 514 25,200 -1,440 Descending Boston Center
09:44AM 42.3561 -74.9436 116° Southeast 427 491 23,900 -1,260 Descending Boston Center
09:45AM 42.3050 -74.8039 116° Southeast 417 480 22,700 -1,200 Descending Boston Center
09:46AM 42.2556 -74.6703 117° Southeast 406 467 21,500 -1,200 Descending Boston Center
09:47AM 42.2039 -74.5367 118° Southeast 401 461 20,300 -1,200 Descending Boston Center
09:48AM 42.1542 -74.4033 117° Southeast 401 461 19,200 -660 Descending Boston Center
09:49AM 42.1042 -74.2731 117° Southeast 395 455 19,000 -600 Descending Boston Center
09:50AM 42.0417 -74.1425 123° Southeast 385 443 18,000 -1,140 Descending Boston Center
09:51AM 41.9869 -74.0294 123° Southeast 372 428 16,800 -1,140 Descending Boston Center
09:52AM 41.9403 -73.9389 125° Southeast 343 395 15,800 -1,200 Descending Boston Center
09:53AM 41.8814 -73.8231 124° Southeast 338 389 14,400 -1,440 Descending Boston Center
09:54AM 41.8281 -73.7383 130° Southeast 338 389 13,000 -1,260 Descending Boston Center
09:55AM 41.7433 -73.6839 154° Southeast 315 362 11,900 -600 Descending Boston Center
09:56AM 41.6681 -73.7044 192° South 301 346 11,900 -240 Level Boston Center
09:57AM 41.5636 -73.7358 193° South 301 346 11,400 -720 Descending Boston Center
09:58AM 41.4667 -73.7667 193° South 273 314 10,200 -960 Descending New York TRACON
09:59AM 41.3833 -73.7833 189° South 273 314 9,200 -1,020 Descending New York TRACON
10:00AM 41.3167 -73.7833 180° South 275 316 8,200 -1,020 Descending New York TRACON
10:01AM 41.2500 -73.7167 143° Southeast 275 316 7,200 -1,020 Descending New York TRACON
10:02AM 41.2000 -73.6667 143° Southeast 270 311 6,200 -1,080 Descending New York TRACON
10:03AM 41.1333 -73.6167 151° Southeast 274 315 5,100 -1,080 Descending New York TRACON
10:04AM 41.0500 -73.6000 171° South 269 310 4,100 -540 Descending New York TRACON
10:05AM 40.9833 -73.5667 159° South 261 300 4,100  Level New York TRACON
10:06AM 40.9167 -73.5833 191° South 259 298 4,100  Level New York TRACON
10:07AM 40.8667 -73.6500 225° Southwest 256 295 4,100  Level New York TRACON
10:08AM 40.8333 -73.7167 237° Southwest 253 291 4,100  Level New York TRACON
10:09AM 40.8000 -73.8167 246° West 253 291 4,100  Level New York TRACON
10:10AM 40.7667 -73.9000 242° Southwest 258 297 4,100 -240 Level New York TRACON
10:11AM 40.7333 -73.9667 237° Southwest 257 296 3,700 -540 Descending New York TRACON
10:12AM 40.6833 -74.0333 225° Southwest 268 308 3,100 -600 Descending New York TRACON
10:13AM 40.6500 -73.9833 131° Southeast 207 238 2,600 -660 Descending New York TRACON
10:14AM 40.7000 -73.9500 27° Northeast 183 211 1,800 -840 Descending New York TRACON